Theta_e
324 324 324 324 322 321 320 320 321 319 320 320 320 320 320 319 318 319 318 318 318 318
323 323 323 323 323 322 321 320 319 319 319 319 319 319 319 318 317 317 317 317 317 316
321 322 323 322 321 321 321 319 317 317 318 318 318 317 317 317 317 316 316 317 317 316
320 320 321 320 320 319 319 316 316 316 317 318 317 318 317 317 318 316 316 316 314 312
315 315 317 318 317 315 316 316 316 316 317 317 318 318 317 316 315 314 312 310 306 305
309 309 311 312 313 314 315 315 316 316 316 315 314 315 313 312 309 308 307 305 305 305
309 310 311 310 310 311 311 312 311 310 309 308 307 307 306 305 304 303 302 300 299 298
298 299 300 303 302 301 301 303 304 302 301 302 302 301 302 301 299 297 297 295 295 295
294 293 295 295 295 294 293 294 294 295 294 294 295 295 296 295 295 294 294 294 292 292
290 290 291 292 292 292 292 292 292 292 292 291 290 293 294 292 292 291 291 290 289 288
289 288 287 287 287 287 288 289 288 287 287 287 288 291 292 290 289 288 288 288 288 288
288 286 286 285 285 286 285 285 284 284 286 286 286 291 291 288 287 287 286 286 287 287
286 285 285 284 284 283 284 285 284 284 283 284 284 291 290 287 286 285 285 285 286 286
282 283 284 282 281 284 284 284 282 279 278 280 280 287 291 289 285 286 285 285 285 285
Wind_Speed
17 11 11 12 10 9 9 8 9 11 12 12 11 10 9 9 10 10 11 15 12 10
14 14 12 13 9 9 9 8 9 10 11 10 10 11 11 9 11 10 12 12 12 11
13 13 12 9 11 12 10 9 8 9 10 11 11 11 11 10 11 10 9 8 11 10
11 12 10 10 10 10 8 8 10 10 11 11 11 10 10 10 9 9 10 9 7 7
7 8 9 10 8 7 9 8 10 10 10 10 9 8 9 9 7 7 6 4 3 5
7 7 8 7 6 6 7 8 8 8 8 6 6 6 5 5 5 6 6 6 4 3
8 8 7 7 6 6 5 5 4 4 5 6 6 5 5 5 3 2 1 2 2 2
5 5 5 5 5 5 5 4 4 4 4 4 3 2 2 3 4 4 3 2 2 1
6 6 6 6 6 6 6 5 5 5 5 4 3 5 6 3 3 3 3 3 3 2
6 6 6 6 5 5 5 5 6 5 5 5 5 7 6 5 4 4 3 4 3 2
7 7 7 6 6 6 5 6 5 5 5 6 4 7 8 9 5 4 4 4 3 2
7 8 7 7 6 5 7 5 4 4 6 6 4 7 10 8 5 5 5 4 4 4
6 8 8 8 7 4 5 7 5 6 5 5 4 7 10 7 4 5 4 3 5 4
6 8 9 7 4 7 8 8 7 7 4 5 4 5 7 6 2 3 3 4 4 3
Wind_Direction
210 211 215 212 208 213 214 215 206 207 215 219 218 218 214 217 223 222 226 233 230 237
209 209 211 213 208 211 214 209 201 202 207 213 214 215 209 220 228 223 232 237 237 237
202 205 210 199 205 207 210 203 191 200 205 209 214 213 206 220 228 225 235 237 241 244
199 199 198 202 208 208 203 191 200 202 210 216 215 215 212 224 232 226 238 238 232 240
183 181 192 203 201 186 205 201 207 209 213 217 220 220 217 224 220 224 234 247 182 207
177 180 194 196 197 191 202 209 209 208 213 211 209 208 202 190 183 193 196 197 195 214
174 176 174 165 167 170 178 175 173 172 161 158 163 165 174 176 177 140 127 92 122 180
166 157 143 142 134 119 120 122 129 117 105 107 99 86 119 130 130 138 125 101 68 347
131 118 125 128 134 131 126 121 107 97 98 84 73 89 95 105 109 105 129 163 167 203
137 134 138 135 130 122 111 106 108 104 106 90 60 45 48 68 65 60 54 53 46 18
151 143 138 132 135 129 124 116 106 96 96 101 73 81 88 102 108 117 99 96 94 95
159 144 141 142 141 125 118 113 108 114 112 114 95 103 118 120 118 108 99 98 95 104
156 146 144 144 135 121 114 115 116 102 92 106 111 106 121 130 134 135 135 117 93 74
148 145 148 135 127 132 121 114 102 96 78 76 60 65 114 106 67 95 85 70 64 48